Погода в Киялах

Казахстан     54°11′55″N   69°39′22″E
темп.,
°C
ветер,
м/с
пор.,
м/с
влажн.,
%
обл.,
%
осадки,
мм/ч
давл.,
гПа
погр.,
м
19 сентября, вс
вс1900:00+6з4690100 6.2 1004955
03:00+6зсз598536 2.4 1005609
06:00+4з6119182 2.5 1006446
09:00+5з711768 0.0 1007853
12:00+7з8106067 0.1 10081522
15:00+5з81268100 0.2 10091400
18:00+6з81365100 0.3 10091485
21:00+5з9147096 0.0 10111181
20 сентября, пн
пн2000:00+4з8147361 0.0 1011675
03:00+3з8147181 0.0 1012751
06:00+3зсз8137592 0.0 1013900
09:00+4зсз7117499 0.0 10151092
12:00+5зсз81071100 0.3 10161196
15:00+6сз81058100 0.3 10181522
18:00+6сз796598 0.5 10191298
21:00+3сз498077 0.1 1021353
21 сентября, вт
вт2100:00+3сз598552 0.1 1022470
03:00+3ссз5775100 0.0 1023902
06:00+2сз589099 0.1 1024523
09:00+3сз577997 0.0 1025766
12:00+4сз4567100 0.1 1026976
15:00+5сз4658100 0.0 10251309
18:00+5сз5659100 0.1 10261062
21:00+4сз4658100 0.0 1026524
22 сентября, ср
ср2200:00+4зсз246297 0.0 1025259
03:00+2сз367198 0.0 1025272
06:00+2зсз237094 0.0 1025197
09:00+3з236837 0.0 1025196
12:00+7з35529 0.0 10241021
15:00+10зсз464575 0.0 10231683
18:00+10зсз4642100 0.0 10221378
21:00+8ссз4856100 0.0 1023278
23 сентября, чт
чт2300:00+6с3673100 0.0 1024401
03:00+5ссз367689 0.0 1024609
06:00+5сз378271 0.0 1026457
09:00+5ссз588278 0.0 1027472
12:00+7с675888 0.1 10281365
15:00+9ссв564969 0.0 10291477
18:00+7св55555 0.0 1030857
21:00+3в35705 0.0 1032132